FW2726 Weather Reports


Display with metric or nautical units.
time (UTC)temp
F
wind
direction
speed
MPH
gust
MPH
rain 1hr
in
rain 24hr
in
rain mn
in
humidity
%
barometer
mb
20260906223116 60 106 10.0 18.0 0.00 0.01 0.01 86 1016.8
20260906221608 60 102 10.0 15.0 0.00 0.01 0.01 86 1016.7
20260906220109 61 75 10.0 16.0 0.00 0.01 0.01 86 1016.5
20260906214607 61 81 12.0 17.0 0.00 0.01 0.01 85 1016.4
20260906213109 61 83 12.0 17.0 0.00 0.01 0.01 85 1016.8
20260906211606 61 77 11.0 19.0 0.00 0.01 0.01 84 1016.6
20260906210116 62 62 12.0 18.0 0.00 0.01 0.01 83 1016.8
20260906204615 62 84 13.0 18.0 0.00 0.01 0.01 83 1016.8
20260906203108 62 78 11.0 19.0 0.00 0.01 0.01 83 1017.0
20260906201608 62 54 12.0 17.0 0.00 0.01 0.01 83 1017.2
20260906200106 62 89 11.0 16.0 0.00 0.01 0.01 83 1017.4
20260906194609 62 56 12.0 18.0 0.00 0.01 0.01 85 1017.4
20260906193107 61 79 9.0 14.0 0.00 0.01 0.01 84 1017.7
20260906191608 62 82 8.0 15.0 0.00 0.01 0.01 83 1018.0
20260906190104 62 70 9.0 15.0 0.00 0.01 0.01 86 1017.9
20260906184610 62 89 10.0 15.0 0.00 0.01 0.01 89 1017.9
20260906183107 61 50 9.0 17.0 0.00 0.01 0.01 92 1017.7
20260906181716 59 69 10.0 15.0 0.00 0.01 0.01 94 1018.3
20260906180112 59 84 8.0 14.0 0.00 0.01 0.01 95 1018.6
20260906174611 59 43 7.0 12.0 0.00 0.01 0.01 96 1018.9
20260906173108 58 82 7.0 14.0 0.00 0.01 0.01 96 1019.2
20260906171608 58 76 6.0 13.0 0.00 0.01 0.01 96 1019.4
20260906170108 58 73 8.0 13.0 0.00 0.01 0.01 96 1019.6
20260906164620 57 110 8.0 11.0 0.00 0.01 0.01 97 1019.7
20260906163110 57 82 8.0 13.0 0.00 0.01 0.01 96 1019.4
20260906161605 57 108 8.0 12.0 0.00 0.01 0.01 97 1019.3
20260906160115 57 75 7.0 12.0 0.00 0.01 0.01 97 1019.5
20260906154609 57 108 8.0 14.0 0.01 0.01 0.01 97 1019.4
20260906153107 57 108 8.0 14.0 0.01 0.01 0.01 97 1019.4
20260906151608 56 95 10.0 15.0 0.01 0.01 0.01 96 1019.6
20260906150114 56 94 7.0 11.0 0.01 0.01 0.01 96 1019.5
20260906144634 56 103 6.0 12.0 0.00 0.00 0.00 96 1019.5
20260906143119 56 85 6.0 11.0 0.00 0.00 0.00 96 1019.7
20260906141608 56 98 5.0 9.0 0.00 0.00 0.00 96 1019.6
20260906140126 56 102 4.0 10.0 0.00 0.00 0.00 96 1019.6
20260906134614 56 110 5.0 9.0 0.00 0.00 0.00 96 1019.7
20260906133126 56 97 4.0 10.0 0.00 0.00 0.00 96 1019.6
20260906131627 56 62 5.0 10.0 0.00 0.00 0.00 96 1019.6
20260906130127 56 90 6.0 10.0 0.00 0.00 0.00 96 1019.4
20260906124631 56 87 4.0 10.0 0.00 0.00 0.00 96 1019.5
20260906123111 56 69 5.0 11.0 0.00 0.00 0.00 96 1019.4
20260906121610 56 62 4.0 9.0 0.00 0.00 0.00 95 1019.5
20260906120131 56 41 6.0 10.0 0.00 0.00 0.00 95 1019.6
20260906114609 56 42 6.0 10.0 0.00 0.00 0.00 95 1019.6
20260906113109 56 34 4.0 9.0 0.00 0.00 0.00 95 1020.1
20260906111607 56 34 4.0 8.0 0.00 0.00 0.00 95 1020.2
20260906110118 56 28 4.0 7.0 0.00 0.00 0.00 95 1020.4
20260906104609 56 26 4.0 7.0 0.00 0.00 0.00 95 1020.4
20260906103106 56 32 3.0 6.0 0.00 0.00 0.00 95 1020.4
20260906101605 56 27 2.0 4.0 0.00 0.00 0.00 95 1020.7
20260906100114 56 23 2.0 3.0 0.00 0.00 0.00 94 1020.6
20260906094606 56 48 1.0 4.0 0.00 0.00 0.00 94 1020.5
20260906093119 56 48 1.0 3.0 0.00 0.00 0.00 94 1020.4
20260906091609 56 48 0.0 3.0 0.00 0.00 0.00 94 1020.4
20260906090137 56 32 2.0 4.0 0.00 0.00 0.00 94 1020.1
20260906084606 56 45 2.0 5.0 0.00 0.00 0.00 94 1020.3
20260906083105 56 58 2.0 4.0 0.00 0.00 0.00 94 1020.5
20260906081604 56 38 2.0 4.0 0.00 0.00 0.00 93 1020.5
20260906080106 56 27 1.0 4.0 0.00 0.00 0.00 93 1020.6
20260906074606 56 0 0.0 0.0 0.00 0.00 0.00 93 1020.9
20260906073110 56 0 0.0 3.0 0.00 0.00 0.00 93 1021.0
20260906071611 56 58 2.0 5.0 0.00 0.00 0.00 93 1020.9
20260906070110 56 34 2.0 4.0 0.00 0.00 0.00 93 1021.1
20260906064607 56 47 2.0 5.0 0.00 0.00 0.00 93 1020.9
20260906063106 56 57 1.0 4.0 0.00 0.00 0.00 93 1020.9
20260906061607 56 0 0.0 4.0 0.00 0.00 0.00 93 1021.1
20260906060111 56 48 2.0 5.0 0.00 0.00 0.00 93 1020.9
20260906054624 56 60 4.0 6.0 0.00 0.01 0.00 93 1021.0
20260906053106 57 53 3.0 8.0 0.00 0.01 0.00 92 1020.9
20260906051606 57 55 4.0 9.0 0.00 0.01 0.00 92 1020.8
20260906050135 57 64 5.0 9.0 0.00 0.01 0.00 92 1020.6
20260906044606 57 65 6.0 12.0 0.00 0.20 0.00 92 1020.5
20260906043111 57 50 5.0 9.0 0.00 0.20 0.00 92 1020.5
20260906041605 57 65 6.0 10.0 0.00 0.20 0.00 92 1020.4
20260906040117 57 43 5.0 9.0 0.00 0.20 0.00 92 1020.4
20260906034611 57 41 5.0 10.0 0.00 0.35 0.00 92 1020.3
20260906033106 57 62 5.0 10.0 0.00 0.35 0.00 92 1020.2
20260906031604 57 64 5.0 8.0 0.00 0.35 0.00 92 1020.1
20260906030135 57 58 4.0 9.0 0.00 0.35 0.00 92 1020.1
20260906024609 57 56 5.0 11.0 0.00 0.38 0.00 91 1020.0
20260906023130 57 43 6.0 10.0 0.00 0.38 0.00 90 1019.7
20260906021614 58 34 4.0 11.0 0.00 0.38 0.00 90 1019.7
20260906020113 58 25 6.0 13.0 0.00 0.38 0.00 89 1019.6
20260906014630 59 43 7.0 12.0 0.00 0.39 0.00 89 1019.5
20260906013108 59 31 5.0 12.0 0.00 0.39 0.00 89 1019.4
20260906011607 59 47 4.0 12.0 0.00 0.39 0.00 88 1019.2
20260906010105 60 41 7.0 12.0 0.00 0.39 0.00 88 1019.1
20260906004606 60 33 7.0 12.0 0.00 0.42 0.00 87 1019.2
20260906003110 61 50 6.0 12.0 0.00 0.42 0.00 86 1019.1
20260906001606 61 60 4.0 13.0 0.00 0.42 0.00 85 1019.2
20260906000105 62 35 7.0 11.0 0.00 0.42 0.00 85 1019.1
20260905234618 62 46 8.0 13.0 0.00 0.42 0.00 84 1018.9
20260905233104 62 16 5.0 10.0 0.00 0.42 0.00 84 1018.9
20260905231624 62 31 6.0 14.0 0.00 0.42 0.00 83 1018.7
20260905230108 62 21 6.0 11.0 0.00 0.42 0.00 83 1018.6
20260905224610 63 43 6.0 10.0 0.00 0.42 0.00 82 1018.8